| time (UTC) | temp F | wind direction | speed MPH | gust MPH | rain 1hr in | rain 24hr in | rain mn in | humidity % | barometer mb |
| 20260506164558 | 64 | 81 | 5.0 | 10.0 | 0.00 | 0.00 | 0.00 | 88 | 1011.6 |
| 20260506163104 | 62 | 53 | 3.0 | 11.0 | 0.00 | 0.00 | 0.00 | 92 | 1012.2 |
| 20260506161606 | 60 | 74 | 4.0 | 11.0 | 0.00 | 0.00 | 0.00 | 92 | 1011.9 |
| 20260506160100 | 60 | 48 | 3.0 | 10.0 | 0.00 | 0.00 | 0.00 | 91 | 1013.2 |
| 20260506154558 | 61 | 26 | 3.0 | 11.0 | 0.00 | 0.00 | 0.00 | 91 | 1013.3 |
| 20260506153103 | 62 | 0 | 2.0 | 10.0 | 0.00 | 0.00 | 0.00 | 91 | 1013.2 |
| 20260506151612 | 63 | 350 | 3.0 | 9.0 | 0.00 | 0.00 | 0.00 | 91 | 1013.1 |
| 20260506150107 | 64 | 21 | 1.0 | 9.0 | 0.00 | 0.00 | 0.00 | 91 | 1012.0 |
| 20260506144617 | 64 | 55 | 2.0 | 11.0 | 0.00 | 0.00 | 0.00 | 91 | 1011.5 |
| 20260506143104 | 66 | 0 | 3.0 | 6.0 | 0.00 | 0.00 | 0.00 | 91 | 1011.4 |
| 20260506141559 | 67 | 352 | 2.0 | 10.0 | 0.00 | 0.00 | 0.00 | 92 | 1010.8 |
| 20260506140113 | 68 | 55 | 2.0 | 8.0 | 0.00 | 0.00 | 0.00 | 92 | 1010.4 |
| 20260506134557 | 75 | 163 | 1.0 | 4.0 | 0.00 | 0.00 | 0.00 | 95 | 1010.3 |
| 20260506133056 | 74 | 0 | 0.0 | 1.0 | 0.00 | 0.00 | 0.00 | 95 | 1009.8 |
| 20260506131601 | 74 | 0 | 0.0 | 0.0 | 0.00 | 0.00 | 0.00 | 95 | 1009.9 |
| 20260506130133 | 74 | 0 | 0.0 | 1.0 | 0.00 | 0.00 | 0.00 | 95 | 1009.3 |
| 20260506124555 | 74 | 0 | 0.0 | 2.0 | 0.00 | 0.00 | 0.00 | 94 | 1009.2 |
| 20260506123058 | 74 | 0 | 0.0 | 0.0 | 0.00 | 0.00 | 0.00 | 94 | 1009.1 |
| 20260506121557 | 73 | 0 | 0.0 | 1.0 | 0.00 | 0.00 | 0.00 | 94 | 1008.8 |
| 20260506114605 | 73 | 0 | 0.0 | 0.0 | 0.00 | 0.00 | 0.00 | 94 | 1008.8 |
| 20260506113107 | 74 | 0 | 0.0 | 2.0 | 0.00 | 0.00 | 0.00 | 94 | 1008.9 |
| 20260506111557 | 74 | 0 | 0.0 | 3.0 | 0.00 | 0.00 | 0.00 | 93 | 1008.9 |
| 20260506110105 | 74 | 192 | 0.0 | 3.0 | 0.00 | 0.00 | 0.00 | 93 | 1008.9 |
| 20260506104616 | 74 | 192 | 0.0 | 2.0 | 0.00 | 0.00 | 0.00 | 93 | 1009.0 |
| 20260506103057 | 75 | 0 | 0.0 | 3.0 | 0.00 | 0.00 | 0.00 | 93 | 1008.7 |
| 20260506101603 | 75 | 192 | 0.0 | 2.0 | 0.00 | 0.00 | 0.00 | 92 | 1008.6 |
| 20260506100055 | 75 | 0 | 0.0 | 4.0 | 0.00 | 0.00 | 0.00 | 91 | 1008.4 |
| 20260506094559 | 75 | 0 | 0.0 | 3.0 | 0.00 | 0.00 | 0.00 | 90 | 1008.3 |
| 20260506093104 | 76 | 0 | 0.0 | 5.0 | 0.00 | 0.00 | 0.00 | 89 | 1008.1 |
| 20260506091558 | 76 | 0 | 1.0 | 5.0 | 0.00 | 0.00 | 0.00 | 89 | 1008.0 |
| 20260506084557 | 76 | 192 | 0.0 | 7.0 | 0.00 | 0.00 | 0.00 | 89 | 1007.8 |
| 20260506083059 | 76 | 210 | 0.0 | 6.0 | 0.00 | 0.00 | 0.00 | 88 | 1007.9 |
| 20260506081556 | 76 | 208 | 1.0 | 7.0 | 0.00 | 0.00 | 0.00 | 88 | 1007.7 |
| 20260506073106 | 76 | 206 | 2.0 | 11.0 | 0.00 | 0.00 | 0.00 | 89 | 1007.7 |
| 20260506071612 | 76 | 204 | 3.0 | 11.0 | 0.00 | 0.00 | 0.00 | 89 | 1007.9 |
| 20260506070104 | 76 | 192 | 3.0 | 9.0 | 0.00 | 0.00 | 0.00 | 89 | 1007.9 |
| 20260506061600 | 76 | 196 | 5.0 | 10.0 | 0.00 | 0.00 | 0.00 | 89 | 1007.6 |
| 20260506044602 | 76 | 187 | 3.0 | 12.0 | 0.00 | 0.00 | 0.00 | 88 | 1007.6 |
| 20260506043103 | 77 | 186 | 3.0 | 9.0 | 0.00 | 0.00 | 0.00 | 88 | 1007.9 |
| 20260506041608 | 77 | 193 | 2.0 | 8.0 | 0.00 | 0.00 | 0.00 | 87 | 1007.6 |
| 20260506040057 | 77 | 182 | 2.0 | 6.0 | 0.00 | 0.00 | 0.00 | 87 | 1007.5 |
| 20260506034556 | 78 | 182 | 2.0 | 10.0 | 0.00 | 0.00 | 0.00 | 86 | 1007.3 |
| 20260506033110 | 78 | 179 | 1.0 | 7.0 | 0.00 | 0.00 | 0.00 | 85 | 1007.1 |
| 20260506031606 | 79 | 183 | 2.0 | 8.0 | 0.00 | 0.00 | 0.00 | 83 | 1007.0 |
| 20260506030056 | 79 | 183 | 2.0 | 7.0 | 0.00 | 0.00 | 0.00 | 82 | 1006.9 |
| 20260506024559 | 79 | 184 | 1.0 | 6.0 | 0.00 | 0.00 | 0.00 | 81 | 1006.8 |
| 20260506023101 | 79 | 184 | 1.0 | 6.0 | 0.00 | 0.00 | 0.00 | 81 | 1006.6 |
| 20260506021558 | 80 | 184 | 1.0 | 7.0 | 0.00 | 0.00 | 0.00 | 80 | 1006.2 |
| 20260506020057 | 80 | 186 | 1.0 | 5.0 | 0.00 | 0.00 | 0.00 | 80 | 1006.0 |
| 20260506014558 | 80 | 185 | 2.0 | 7.0 | 0.00 | 0.00 | 0.00 | 79 | 1005.8 |
| 20260506013100 | 81 | 186 | 1.0 | 5.0 | 0.00 | 0.00 | 0.00 | 79 | 1005.7 |
| 20260506011604 | 81 | 186 | 2.0 | 6.0 | 0.00 | 0.00 | 0.00 | 77 | 1005.6 |
| 20260506004559 | 82 | 192 | 2.0 | 12.0 | 0.00 | 0.00 | 0.00 | 74 | 1005.5 |
| 20260506003059 | 83 | 191 | 3.0 | 10.0 | 0.00 | 0.00 | 0.00 | 74 | 1005.6 |
| 20260506001619 | 83 | 188 | 2.0 | 9.0 | 0.00 | 0.00 | 0.00 | 74 | 1005.7 |
| 20260505234601 | 83 | 200 | 1.0 | 8.0 | 0.00 | 0.00 | 0.00 | 72 | 1005.7 |
| 20260505233059 | 83 | 195 | 3.0 | 11.0 | 0.00 | 0.00 | 0.00 | 71 | 1005.5 |
| 20260505231559 | 84 | 196 | 4.0 | 13.0 | 0.00 | 0.00 | 0.00 | 71 | 1005.4 |
| 20260505230117 | 84 | 190 | 4.0 | 14.0 | 0.00 | 0.00 | 0.00 | 70 | 1005.2 |
| 20260505224600 | 84 | 178 | 5.0 | 11.0 | 0.00 | 0.00 | 0.00 | 70 | 1005.0 |
| 20260505223100 | 84 | 196 | 4.0 | 14.0 | 0.00 | 0.00 | 0.00 | 70 | 1005.2 |
| 20260505221559 | 84 | 183 | 5.0 | 13.0 | 0.00 | 0.00 | 0.00 | 70 | 1005.0 |
| 20260505220100 | 85 | 177 | 6.0 | 13.0 | 0.00 | 0.00 | 0.00 | 69 | 1005.1 |
| 20260505214608 | 85 | 174 | 6.0 | 17.0 | 0.00 | 0.00 | 0.00 | 70 | 1005.3 |
| 20260505213101 | 85 | 216 | 4.0 | 14.0 | 0.00 | 0.00 | 0.00 | 70 | 1005.5 |
| 20260505211616 | 85 | 199 | 5.0 | 15.0 | 0.00 | 0.00 | 0.00 | 70 | 1005.6 |
| 20260505210106 | 85 | 171 | 5.0 | 12.0 | 0.00 | 0.00 | 0.00 | 71 | 1005.8 |
| 20260505204559 | 84 | 165 | 7.0 | 16.0 | 0.00 | 0.00 | 0.00 | 71 | 1005.9 |
| 20260505203058 | 84 | 169 | 7.0 | 13.0 | 0.00 | 0.00 | 0.00 | 72 | 1006.0 |
| 20260505201605 | 85 | 175 | 3.0 | 10.0 | 0.00 | 0.00 | 0.00 | 70 | 1006.4 |
| 20260505200058 | 84 | 166 | 5.0 | 14.0 | 0.00 | 0.00 | 0.00 | 70 | 1006.5 |
| 20260505194558 | 85 | 204 | 4.0 | 13.0 | 0.00 | 0.00 | 0.00 | 69 | 1006.6 |
| 20260505193100 | 84 | 214 | 4.0 | 13.0 | 0.00 | 0.00 | 0.00 | 70 | 1006.9 |
| 20260505191604 | 84 | 229 | 3.0 | 10.0 | 0.00 | 0.00 | 0.00 | 70 | 1007.0 |
| 20260505190113 | 83 | 187 | 5.0 | 13.0 | 0.00 | 0.00 | 0.00 | 70 | 1007.2 |
| 20260505184609 | 83 | 229 | 4.0 | 13.0 | 0.00 | 0.00 | 0.00 | 71 | 1007.4 |
| 20260505183057 | 82 | 238 | 4.0 | 12.0 | 0.00 | 0.00 | 0.00 | 73 | 1007.5 |
| 20260505181603 | 80 | 211 | 4.0 | 15.0 | 0.00 | 0.00 | 0.00 | 75 | 1007.8 |
| 20260505180057 | 80 | 209 | 4.0 | 13.0 | 0.00 | 0.00 | 0.00 | 76 | 1007.8 |
| 20260505174600 | 78 | 212 | 2.0 | 10.0 | 0.00 | 0.00 | 0.00 | 79 | 1008.2 |
| 20260505173101 | 77 | 178 | 4.0 | 15.0 | 0.00 | 0.00 | 0.00 | 80 | 1008.1 |
| 20260505171558 | 77 | 232 | 1.0 | 10.0 | 0.00 | 0.00 | 0.00 | 82 | 1008.2 |
| 20260505170109 | 76 | 204 | 4.0 | 15.0 | 0.00 | 0.00 | 0.00 | 82 | 1008.2 |